Regional Weather Roundup
Issued by NWS Newport/Morehead, NC

Current Version | Previous Version | Graphics & Text | Print | Product List | Glossary On
Versions: 1 2 3 4 5 6 7 8 9 10 11 12 13 14 15 16 17 18 19 20 21 22 23 24 25 26 27 28 29 30 31 32 33 34 35 36 37 38 39 40 41 42 43 44 45 46 47 48 49 50
000 ASUS42 KMHX 032225 RWRMHX WEATHER ROUNDUP FOR EASTERN NORTH CAROLINA NATIONAL WEATHER SERVICE NEWPORT/MOREHEAD CITY NC 600 PM EDT THU SEP 03 2015 NOTE: "FAIR" INDICATES FEW OR NO CLOUDS BELOW 12,000 FEET WITH NO SIGNIFICANT WEATHER AND/OR OBSTRUCTIONS TO VISIBILITY NCZ015>017-031-032-045>047-102-103-032300- NORTH COAST CITY SKY/WX TMP DP RH WIND PRES REMARKS EDENTON MOSUNNY 85 70 61 W3 29.86F ELIZABETH CITY MOSUNNY 80 70 71 SW6 29.86F KITTY HAWK CLEAR 85 69 58 CALM 29.86S MANTEO SUNNY 82 71 69 SW6 29.87S $$ NCZ045>047-081-094-103-104-032300- CENTRAL COAST CITY SKY/WX TMP DP RH WIND PRES REMARKS FRISCO SUNNY 82 71 69 SW3 29.88S SWANQUARTER N/A 86 N/A N/A S7 29.82S $$ NCZ095-097-098-100-101-032300- SOUTHERN COAST CITY SKY/WX TMP DP RH WIND PRES REMARKS BEAUFORT MOSUNNY 81 74 79 SW9 29.87F CEDAR ISLAND N/A 84 N/A N/A SE2G9 29.91S JACKSONVILLE MOSUNNY 84 73 69 S5 29.86F PINEY ISLAND PTCLDY N/A N/A N/A SE6 29.87F WILMINGTON CLOUDY 77 70 79 SW6 29.88F $$ NCZ011>013-027>030-043-044-078>080-089-090>093-098-032300- COASTAL PLAIN CITY SKY/WX TMP DP RH WIND PRES REMARKS AHOSKIE MOSUNNY 82 74 76 CALM 29.87F CLINTON SUNNY 89 70 52 NE3 29.88S ELIZABETHTOWN MOSUNNY 89 69 50 CALM 29.88R GOLDSBORO MOSUNNY 88 69 53 N5 29.86F GREENVILLE SUNNY 84 72 65 CALM 29.89F HAVELOCK PTSUNNY 85 74 69 S7 29.87F KENANSVILLE N/A 87 65 48 CALM 29.88S KINSTON MOSUNNY 88 64 45 N3 29.88F NEW BERN SUNNY 87 69 54 CALM 29.88F RICHLANDS MOSUNNY 88 68 51 CALM 29.87S ROCKY MOUNT PTSUNNY 90 68 48 VRB3 29.87F WASHINGTON MOSUNNY 85 70 61 CALM 29.87S WHITEVILLE PTSUNNY 83 71 67 S5 29.88S $$ AMZ130-135-150-152-154-156-158-170-250-252-270-ANZ085-086-088-633-658-670-032300- MARINE OBSERVATIONS STATION/POSITION TIME TEMP WIND PRES WAVE SWELL AIR SEA DIR/SP/G HT/PER HT/PER (UTC) (F) (DEG/KT/KT) (MB) (FT/S) (FT/S) CHESAPEAKE LIGHT 2200 81 200/ 3/ 4 1011.9 64 E VA BEACH 2150 80 80 270/ 6/ 6 1011.0 1/12 2/12 DUCK 2200 84 81 130/ 5/ 5 1010.5 2 E DUCK 2111 82 N/A 1/13 OREGON INLET 2200 81 82 180/ 5/ 8 1011.5 13E OREGON INLT 2200 83 N/A 1/13 HATTERAS CG 2200 82 83 160/ 4/ 5 1011.4 DIAMOND BUOY 2150 82 86 210/ 2/ 4 1011.8 1/ 8 2/ 8 CAPE LOOKOUT 2200 81 220/ 3/ 4 1011.5 BEAUFORT LAB 2200 82 82 220/ 2/ 6 1010.9 30 SE NEW RVR IN 2108 81 82 260/ 10/ 12 1012.2 30 SE NEW RVR IN 2125 82 N/A 1/13 27 SE WRIGHTSVLE 2200 77 82 270/ 4/ 6 N/A 5 SE WRIGHTSVLE 2108 78 82 260/ 12/ 16 1011.6 225 S CAPE HAT 2150 83 84 290/ 6/ 8 1012.4 2/13 2/13 41 SE CHARLESTON 2150 81 84 200/ 6/ 6 1012.0 2/ 8 2/ 8 $$

USA.gov is the U.S. government's official web portal to all federal, state and local government web resources and services.